Вернуться в каталог

SL-6 R/B(2)

АктивенHEO
NORAD 21199·ROCKET BODY·🇷🇺 Russia

Запущен Mar 22, 1991 с Plesetsk Cosmodrome

Loading…

Ближайшие Пролёты (ближайшие 24 часа)

TLE

СвежийSource: Space-Track

Эпоха: Sep 11, 2026, 15:28 UTC

1 21199U 91022D   26254.64455233 -.00000676  00000-0  00000-0 0  9997
2 21199  64.4459 134.8828 6705978 250.9123  29.4633  2.05837333266379

Отслеживайте SL-6 R/B(2) в реальном времени с AllMySat

Download on the App Store